Погода в Тетюши

Поиск расширенной информации на нашем сайте:

Полезная информация:

Новости сайта



02.01.2020
Опубликован Долгосрочный прогноз погоды по городам России и ближнего зарубежья на январь 2020 года.
Карты: Прогноз на январь и февраль 2020 года, Сравнение прогнозируемой аномалии приземной температуры воздуха на январь 2020 года по разным моделям.




Погода в Тетюши - сегодня

Время (UTC), дата Ветер
(°,м/с) 
Видим.   Явления Облачность Т
(°С)
Тd
(°С)
f(%) Тe
(°С)
Pmin
(гПа)
dP
(гПа)
Po
(мм)
O2
(г/м3)
Тmin Tmax R s Состояние
почвы
06 05.03.21 290 (З) 20000 м    10/0 средняя 
[As op]
-6 -9.5 76 -7  1001.3  1.3  736  304           
09 05.03.21 280 (З) 20000 м    4/0 средняя 
[Ac trans]
-6.1 -10.4 72 -9  1003.4  2.1  738  305           
12 05.03.21 280 (З) 20000 м    6/0 средняя 
[Ac trans]
-3.6 -11 56 -3  1005.1  1.8  739  303           
15 05.03.21 200 (Ю) 20000 м    6/0 средняя 
[Ac trans]
-8.6 -12.3 75 -11  1008  2.5  741  309    -3.6       
18 05.03.21 210 (ЮЗ) 20000 м    3/0 средняя 
[Ac trans]
-9.3 -11.2 86 -12  1009.8  1.6  742  311           
21 05.03.21 190 (Ю) 20000 м    ясно 
-11.2 -15.1 73 -15  1010.7  0.8  743  313           
00 06.03.21 220 (ЮЗ) н/о    н/о 
-9.8 -13.1 77 -14  1011.1  0.5  743  312           
03 06.03.21 230 (ЮЗ) 20000 м    8/0 средняя 
[Ac trans]
-10.3 -12.5 84 -14  1012.5  1.3  744  313  -11.5      55  равномерный
сухой снег
100% 
06 06.03.21 250 (З) 20000 м    4/0 средняя 
[Ac trans]
-10.6 -13.4 80 -15  1014.7  2.2  746  314  -11.5         
09 06.03.21 260 (З) 20000 м    4/0 средняя 
[Ac trans]
-8.4 -13.3 68 -13  1015.1  0.5  746  311           
12 06.03.21 190 (Ю) 20000 м    4/0 средняя, верхняя 
[Ac trans|Ci fib]
-7.7 -14.2 60 -10  1014.2  -0.9  745  310           
15 06.03.21 160 (Ю) 20000 м    6/0 средняя 
[Ac trans]
-11.1 -15.6 69 -14  1013.8  -0.6  745  314    -7.1       
18 06.03.21 200 (Ю) 20000 м    3/0 средняя 
[Ac trans]
-12.6 -17.4 67 -15  1013.5  -0.4  745  316           
21 06.03.21 200 (Ю) 20000 м    ясно 
-13.8 -17.7 72 -17  1012.8  -0.8  744  317           
00 07.03.21 200 (Ю) 20000 м    4/0 средняя 
[Ac trans]
-15 -17.5 81 -17  1012  -0.9  743  318           
03 07.03.21 210 (ЮЗ) 20000 м    8/0 средняя 
[Ac trans]
-12.8 -15.1 83 -16  1011.4  -0.4  743  315  -18.3      55  равномерный
сухой снег
100% 
06 07.03.21 200 (Ю) 20000 м    4/0 средняя 
[Ac trans]
-14.8 -17.6 79 -17  1011.5  743  318           
09 07.03.21 190 (Ю) 20000 м    8/0 средняя 
[Ac trans]
-9.3 -13.3 73 -12  1010.2  -0.9  742  311           
12 07.03.21 190 (Ю) 20000 м    6/0 средняя, верхняя 
[Ac trans|Ci fib]
-7.2 -12.7 65 -11  1007.8  -2.2  741  308           
15 07.03.21 150 (ЮВ) 20000 м    10/0 средняя 
[As op]
-6.9 -13.2 61 -11  1004.9  -2.8  739  307    -6.8       
18 07.03.21 160 (Ю) 8-13{13}  2000 м  снег  10/10 300 м 
[Frnb|Ns]
-7.2 -9.6 83 -13  1001.5  -3.3  736  306           
21 07.03.21 160 (Ю) 8-11{13}  2000 м  снег  10/10 300 м 
[Frnb|Ns]
-6.6 -8.5 86 -12  997.1  -4.3  733  303           
00 08.03.21 170 (Ю) 8-11{12}  2000 м  снег  10/10 300 м 
[Frnb|Ns]
-4.9 -6.7 87 -10  993.4  -3.5  730  300           
03 08.03.21 220 (ЮЗ) 10-15{16}  20000 м  {снег}  10/8 600 м средняя 
[Sc|As op]
-3.5 -5.5 86 -9  991.5  -1.8  729  298  -7.7    57  равномерный
сухой снег
100% 
06 08.03.21 220 (ЮЗ) 7-10{17}  20000 м    10/6 600 м средняя 
[Sc|As op]
-4.8 -9.1 72 -10  996.2  4.5  732  301           
Время (UTC), дата Ветер
(°,м/с) 
Видим.   Явления Облачность Т
(°С)
Тd
(°С)
f(%) Тe
(°С)
Pmin
(гПа)
dP
(гПа)
Po
(мм)
O2
(г/м3)
Тmin Tmax R s Состояние
почвы

Для получения пояснительной информации подведите курсор к названию столбца.

ПОГОДА в Тетюши - архив

Всё, что Вы хотите узнать о погоде в Тетюши - удобно и подробно!

Выберите нужную дату (начиная с 1 января 2019* года) и нажмите кнопку "Найти".
Будут отображены архивные сводки погоды по пункту Тетюши, начиная с указанной даты.


Отображать данные в формате CSV (для использования в таблицах Excel)


Внимание! Наш архив погоды предназначен исключительно для личного некоммерческого использования в познавательных целях. Если Вам необходимы официальные справки о состоянии погоды (для производственных, юридических, коммерческих и т.п. целей), обращайтесь в органы Росгидромета.

*Примечание: данная дата относится к архиву по метеостанциям СССР (Россия, СНГ, Балтия).
Архив по метеостанциям Зарубежной Европы и Азии (кроме Китая) хранится 10 дней, по другим регионам земного шара (Китай, Африка, Америка, Австралия, Океания) - 1 день.

Тетюши - район местоположения метеостанции


Название, широта, долгота, высота метеостанции:
Тетюши 54.9°ш. 48.8°д. 156 м над ур. моря [Российская Федерация]

Дополнительная информация

В oтличие oт бoльшинства пoгoдных сайтoв мы публикуем пoдрoбную метеoинфoрмацию в детальнoм прoфессиoнальнoм фoрмате.

Характеристики температуры и влажнoсти вoздуха измеряются на высoте 2 м в тени вдали oт зданий и деревьев.
Скoрoсть ветра измеряется на высoте 10 м (на урoвне рoста челoвека скoрoсть ветра ниже в 1.5-2 раза). Если метеoстанция нахoдится в гoрoде или в лесу, тo скoрoсть ветра занижена на 2-4 м/с пo сравнению с oткрытым местoм. Скoрoсть ветра над акватoриями крупных рек и oзёр, а также на вершинах хoлмoв на 2-5 м/с выше, чем в oбычных услoвиях.
Атмoсфернoе давление в разных тoчках местнoсти мoжет значительнo oтличаться oт давления на метеoстанции, в зависимoсти oт услoвий рельефа (при пoдъёме на 10 м давление пoнижается примернo на 1 мм рт.ст.).